EWG9590 LEPA-LEMG

Flight info

Callsign EWG9590
Flight time 1h 9m
Altitude 37000
Route BAVER M603 ALT N851 UNTOS/N0448F360 N865 VIBAS
Aircraft A320/M-SDE3FGHIRWY/LB1

Departure

Time 2026-04-30 19:15
Airport Palma de Mallorca Airport (LEPA)

Arrival

Time 2026-04-30 20:24
Airport Málaga-Costa del Sol Airport (LEMG)
Time Latitude Longitude Altitude Speed Heading
2026-04-30 18:20 39.55022 2.73487 26 ft 0 kts 169°
2026-04-30 19:04 39.55053 2.73462 30 ft 4 kts 102°
2026-04-30 19:04 39.55050 2.73426 30 ft 0 kts 58°
2026-04-30 19:07 39.55055 2.73436 29 ft 0 kts 58°
2026-04-30 19:08 39.55103 2.73538 25 ft 14 kts 57°
2026-04-30 19:08 39.55170 2.73793 25 ft 15 kts 83°
2026-04-30 19:08 39.55245 2.73792 24 ft 13 kts 330°
2026-04-30 19:09 39.55443 2.73639 21 ft 20 kts 329°
2026-04-30 19:09 39.55570 2.73539 20 ft 22 kts 328°
2026-04-30 19:09 39.55673 2.73543 19 ft 16 kts 58°
2026-04-30 19:10 39.55805 2.73818 18 ft 20 kts 59°
2026-04-30 19:10 39.55957 2.74143 19 ft 22 kts 58°
2026-04-30 19:11 39.56037 2.74313 17 ft 11 kts 56°
2026-04-30 19:11 39.56147 2.74297 18 ft 0 kts 329°
2026-04-30 19:13 39.56193 2.74188 18 ft 6 kts 233°
2026-04-30 19:13 39.56189 2.74176 17 ft 0 kts 243°
2026-04-30 19:14 39.56138 2.74061 19 ft 47 kts 239°
2026-04-30 19:14 39.55960 2.73692 17 ft 97 kts 237°
2026-04-30 19:14 39.55490 2.72719 22 ft 155 kts 237°
2026-04-30 19:14 39.54846 2.71435 374 ft 172 kts 238°
2026-04-30 19:15 39.54209 2.70127 1071 ft 172 kts 236°
2026-04-30 19:15 39.52800 2.67300 1951 ft 208 kts 236°
2026-04-30 19:15 39.51973 2.65659 2419 ft 224 kts 236°
2026-04-30 19:16 39.51115 2.63963 3226 ft 227 kts 237°
2026-04-30 19:16 39.50246 2.62247 4079 ft 228 kts 237°
2026-04-30 19:16 39.48497 2.58809 5820 ft 229 kts 238°
2026-04-30 19:17 39.47618 2.57083 6668 ft 230 kts 238°
2026-04-30 19:17 39.45856 2.53620 8302 ft 231 kts 238°
2026-04-30 19:17 39.44959 2.51860 8987 ft 243 kts 238°
2026-04-30 19:18 39.43318 2.48579 9749 ft 275 kts 238°
2026-04-30 19:18 39.41888 2.45715 10448 ft 297 kts 238°
2026-04-30 19:18 39.40722 2.43383 10701 ft 320 kts 238°
2026-04-30 19:19 39.39480 2.40909 11194 ft 332 kts 238°
2026-04-30 19:19 39.38211 2.38385 11809 ft 338 kts 238°
2026-04-30 19:19 39.35644 2.33294 12067 ft 338 kts 238°
2026-04-30 19:20 39.34361 2.30750 12070 ft 338 kts 238°
2026-04-30 19:20 39.33080 2.28212 12071 ft 337 kts 238°
2026-04-30 19:20 39.30470 2.23039 12074 ft 364 kts 238°
2026-04-30 19:21 39.29045 2.20213 12072 ft 384 kts 238°
2026-04-30 19:21 39.26090 2.14369 12069 ft 390 kts 237°
2026-04-30 19:22 39.23114 2.08511 12064 ft 390 kts 237°
2026-04-30 19:22 39.18643 1.99724 12064 ft 390 kts 237°
2026-04-30 19:23 39.14877 1.90509 12069 ft 389 kts 255°
2026-04-30 19:24 39.13472 1.83774 12061 ft 389 kts 255°
2026-04-30 19:24 39.12753 1.80409 12062 ft 389 kts 255°
2026-04-30 19:24 39.11299 1.73691 12066 ft 389 kts 254°
2026-04-30 19:25 39.09127 1.63619 12065 ft 389 kts 255°
2026-04-30 19:26 39.07683 1.56900 12058 ft 390 kts 255°
2026-04-30 19:26 39.06238 1.50178 12062 ft 389 kts 255°
2026-04-30 19:26 39.05513 1.46826 12057 ft 389 kts 254°
2026-04-30 19:27 39.04051 1.40113 12061 ft 389 kts 254°
2026-04-30 19:27 39.02583 1.33408 12060 ft 389 kts 254°
2026-04-30 19:28 39.01847 1.30059 12057 ft 389 kts 254°
2026-04-30 19:28 39.00380 1.23365 12057 ft 389 kts 254°
2026-04-30 19:29 38.98898 1.16613 13038 ft 395 kts 254°
2026-04-30 19:29 38.98151 1.13211 13712 ft 397 kts 254°
2026-04-30 19:30 38.95862 1.02835 15317 ft 407 kts 254°
2026-04-30 19:30 38.94295 0.95774 16299 ft 414 kts 254°
2026-04-30 19:31 38.92707 0.88597 17237 ft 421 kts 253°
2026-04-30 19:31 38.91900 0.84971 17679 ft 424 kts 253°
2026-04-30 19:31 38.90255 0.77639 18497 ft 431 kts 253°
2026-04-30 19:32 38.89421 0.73931 18858 ft 433 kts 253°
2026-04-30 19:32 38.88585 0.70210 19214 ft 436 kts 253°
2026-04-30 19:32 38.87670 0.66492 19566 ft 437 kts 248°
2026-04-30 19:32 38.86540 0.62856 19916 ft 439 kts 248°
2026-04-30 19:33 38.85401 0.59212 20253 ft 441 kts 248°
2026-04-30 19:33 38.84255 0.55555 20576 ft 443 kts 248°
2026-04-30 19:33 38.83101 0.51885 20886 ft 445 kts 248°
2026-04-30 19:33 38.81864 0.48250 21200 ft 446 kts 241°
2026-04-30 19:34 38.80213 0.44878 21495 ft 448 kts 236°
2026-04-30 19:34 38.78489 0.41548 21802 ft 449 kts 236°
2026-04-30 19:34 38.75024 0.34849 22365 ft 452 kts 236°
2026-04-30 19:35 38.73280 0.31482 22635 ft 454 kts 236°
2026-04-30 19:35 38.71531 0.28110 22888 ft 455 kts 236°
2026-04-30 19:35 38.69775 0.24729 23131 ft 457 kts 236°
2026-04-30 19:35 38.68035 0.21382 23369 ft 458 kts 236°
2026-04-30 19:36 38.66248 0.17940 23597 ft 459 kts 236°
2026-04-30 19:36 38.64476 0.14530 23772 ft 461 kts 236°
2026-04-30 19:36 38.60941 0.07739 24070 ft 462 kts 236°
2026-04-30 19:37 38.59157 0.04318 24205 ft 463 kts 236°
2026-04-30 19:37 38.57367 0.00890 24327 ft 464 kts 236°
2026-04-30 19:37 38.55571 -0.02546 24449 ft 465 kts 236°
2026-04-30 19:37 38.53776 -0.05977 24563 ft 465 kts 236°
2026-04-30 19:38 38.51975 -0.09411 24684 ft 466 kts 236°
2026-04-30 19:38 38.50172 -0.12849 24796 ft 466 kts 236°
2026-04-30 19:38 38.48366 -0.16279 24915 ft 466 kts 236°
2026-04-30 19:38 38.46558 -0.19709 25039 ft 466 kts 236°
2026-04-30 19:39 38.44748 -0.23144 25151 ft 466 kts 236°
2026-04-30 19:39 38.42940 -0.26565 25282 ft 465 kts 236°
2026-04-30 19:39 38.41131 -0.29986 25390 ft 465 kts 236°
2026-04-30 19:39 38.39323 -0.33412 25514 ft 465 kts 236°
2026-04-30 19:40 38.37519 -0.36836 25637 ft 465 kts 236°
2026-04-30 19:40 38.35722 -0.40249 25759 ft 465 kts 236°
2026-04-30 19:40 38.33915 -0.43665 25880 ft 464 kts 236°
2026-04-30 19:40 38.32109 -0.47073 26003 ft 464 kts 236°
2026-04-30 19:41 38.30303 -0.50479 26117 ft 464 kts 236°
2026-04-30 19:41 38.28497 -0.53879 26250 ft 464 kts 236°
2026-04-30 19:41 38.26777 -0.57286 26609 ft 445 kts 241°
2026-04-30 19:41 38.25488 -0.60741 27054 ft 423 kts 245°
2026-04-30 19:42 38.24279 -0.64122 27509 ft 419 kts 245°
2026-04-30 19:42 38.23068 -0.67493 27976 ft 419 kts 245°
2026-04-30 19:42 38.21853 -0.70857 28453 ft 418 kts 245°
2026-04-30 19:42 38.20637 -0.74203 28932 ft 417 kts 244°
2026-04-30 19:43 38.19422 -0.77544 29422 ft 415 kts 245°
2026-04-30 19:43 38.18214 -0.80873 29927 ft 414 kts 245°
2026-04-30 19:43 38.17015 -0.84184 30379 ft 412 kts 244°
2026-04-30 19:44 38.14626 -0.90772 31252 ft 408 kts 244°
2026-04-30 19:44 38.13440 -0.94041 31697 ft 406 kts 244°
2026-04-30 19:44 38.12258 -0.97296 32154 ft 404 kts 243°
2026-04-30 19:44 38.11083 -1.00521 32615 ft 401 kts 243°
2026-04-30 19:45 38.09914 -1.03725 33089 ft 399 kts 243°
2026-04-30 19:45 38.08753 -1.06907 33571 ft 396 kts 243°
2026-04-30 19:45 38.07599 -1.10068 34054 ft 393 kts 242°
2026-04-30 19:45 38.06451 -1.13206 34487 ft 390 kts 242°
2026-04-30 19:46 38.05311 -1.16314 34923 ft 386 kts 242°
2026-04-30 19:46 38.04185 -1.19382 35359 ft 382 kts 243°
2026-04-30 19:46 38.03067 -1.22421 35807 ft 378 kts 243°
2026-04-30 19:46 38.01964 -1.25415 36263 ft 373 kts 243°
2026-04-30 19:47 38.00874 -1.28372 36732 ft 367 kts 243°
2026-04-30 19:47 38.00160 -1.30306 36980 ft 366 kts 243°
2026-04-30 19:47 37.98710 -1.34239 37074 ft 372 kts 243°
2026-04-30 19:48 37.96482 -1.40283 37078 ft 384 kts 243°
2026-04-30 19:48 37.94180 -1.46513 37084 ft 396 kts 243°
2026-04-30 19:49 37.91810 -1.52907 37088 ft 406 kts 243°
2026-04-30 19:49 37.88161 -1.62726 37090 ft 413 kts 243°
2026-04-30 19:50 37.85710 -1.69293 37091 ft 413 kts 243°
2026-04-30 19:50 37.83256 -1.75855 37091 ft 413 kts 243°
2026-04-30 19:51 37.80799 -1.82420 37105 ft 413 kts 243°
2026-04-30 19:51 37.78338 -1.88992 37100 ft 413 kts 243°
2026-04-30 19:52 37.75870 -1.95560 37117 ft 414 kts 243°
2026-04-30 19:52 37.73396 -2.02121 37125 ft 414 kts 242°
2026-04-30 19:53 37.70909 -2.08686 37119 ft 414 kts 242°
2026-04-30 19:53 37.68424 -2.15252 37129 ft 415 kts 242°
2026-04-30 19:54 37.65938 -2.21821 37139 ft 415 kts 242°
2026-04-30 19:54 37.63443 -2.28391 37137 ft 415 kts 242°
2026-04-30 19:55 37.60945 -2.34960 37135 ft 415 kts 242°
2026-04-30 19:55 37.58442 -2.41523 37128 ft 415 kts 242°
2026-04-30 19:56 37.56358 -2.46973 37131 ft 416 kts 242°
2026-04-30 19:56 37.53843 -2.53533 37130 ft 416 kts 242°
2026-04-30 19:57 37.51285 -2.60061 37123 ft 414 kts 236°
2026-04-30 19:57 37.49488 -2.62873 37123 ft 411 kts 224°
2026-04-30 19:57 37.47449 -2.65395 37124 ft 412 kts 224°
2026-04-30 19:58 37.43351 -2.70425 37126 ft 412 kts 224°
2026-04-30 19:58 37.39244 -2.75457 37124 ft 412 kts 224°
2026-04-30 19:59 37.35133 -2.80484 37122 ft 410 kts 224°
2026-04-30 19:59 37.31188 -2.85308 37085 ft 381 kts 223°
2026-04-30 20:00 37.29317 -2.87593 36918 ft 370 kts 223°
2026-04-30 20:00 37.27486 -2.89830 36603 ft 364 kts 223°
2026-04-30 20:00 37.25684 -2.92033 36241 ft 359 kts 223°
2026-04-30 20:00 37.23899 -2.94209 35674 ft 360 kts 223°
2026-04-30 20:01 37.20170 -2.98736 33538 ft 386 kts 222°
2026-04-30 20:01 37.18211 -3.01112 32548 ft 394 kts 223°
2026-04-30 20:01 37.16241 -3.03503 31853 ft 394 kts 223°
2026-04-30 20:02 37.12327 -3.08253 30709 ft 389 kts 224°
2026-04-30 20:02 37.10388 -3.10605 29847 ft 391 kts 224°
2026-04-30 20:03 37.06367 -3.15477 27430 ft 411 kts 224°
2026-04-30 20:03 37.04307 -3.17968 26605 ft 412 kts 224°
2026-04-30 20:03 37.02252 -3.20451 25892 ft 410 kts 224°
2026-04-30 20:03 37.00209 -3.22921 25192 ft 408 kts 224°
2026-04-30 20:04 36.98170 -3.25382 24536 ft 406 kts 224°
2026-04-30 20:04 36.96140 -3.27826 23891 ft 404 kts 224°
2026-04-30 20:04 36.94118 -3.30261 23163 ft 403 kts 224°
2026-04-30 20:05 36.90099 -3.35089 21883 ft 398 kts 224°
2026-04-30 20:05 36.88111 -3.37477 21297 ft 395 kts 224°
2026-04-30 20:05 36.84173 -3.42210 20150 ft 390 kts 224°
2026-04-30 20:06 36.82221 -3.44555 19613 ft 388 kts 224°
2026-04-30 20:06 36.80304 -3.46851 19099 ft 386 kts 223°
2026-04-30 20:06 36.78345 -3.49187 18576 ft 384 kts 223°
2026-04-30 20:06 36.76442 -3.51454 18028 ft 382 kts 223°
2026-04-30 20:07 36.74529 -3.53735 17486 ft 379 kts 223°
2026-04-30 20:07 36.72634 -3.55997 16961 ft 375 kts 223°
2026-04-30 20:07 36.68896 -3.60458 15947 ft 369 kts 223°
2026-04-30 20:08 36.67051 -3.62658 15450 ft 366 kts 223°
2026-04-30 20:08 36.65223 -3.64838 14957 ft 362 kts 223°
2026-04-30 20:08 36.63411 -3.66999 14477 ft 359 kts 223°
2026-04-30 20:08 36.61613 -3.69141 13994 ft 356 kts 223°
2026-04-30 20:09 36.59829 -3.71267 13474 ft 353 kts 223°
2026-04-30 20:09 36.58061 -3.73366 13130 ft 345 kts 223°
2026-04-30 20:09 36.54728 -3.77321 12861 ft 319 kts 223°
2026-04-30 20:10 36.51593 -3.81034 12285 ft 307 kts 223°
2026-04-30 20:10 36.50057 -3.82850 11931 ft 303 kts 223°
2026-04-30 20:10 36.48534 -3.84649 11576 ft 300 kts 223°
2026-04-30 20:11 36.45542 -3.88182 10896 ft 290 kts 223°
2026-04-30 20:11 36.44115 -3.89869 10557 ft 276 kts 223°
2026-04-30 20:11 36.42755 -3.91479 10220 ft 264 kts 223°
2026-04-30 20:12 36.40203 -3.94500 9517 ft 243 kts 223°
2026-04-30 20:12 36.38999 -3.95912 9156 ft 235 kts 222°
2026-04-30 20:12 36.37801 -3.97261 8808 ft 232 kts 221°
2026-04-30 20:13 36.36599 -3.98589 8450 ft 230 kts 221°
2026-04-30 20:13 36.35424 -3.99883 8104 ft 223 kts 223°
2026-04-30 20:13 36.34549 -4.01403 7759 ft 216 kts 251°
2026-04-30 20:13 36.34425 -4.03219 7416 ft 211 kts 281°
2026-04-30 20:14 36.35046 -4.04838 7054 ft 209 kts 310°
2026-04-30 20:14 36.36025 -4.06168 6656 ft 209 kts 311°
2026-04-30 20:14 36.36995 -4.07499 6256 ft 208 kts 310°
2026-04-30 20:14 36.37958 -4.08830 5841 ft 207 kts 310°
2026-04-30 20:15 36.38914 -4.10154 5438 ft 205 kts 311°
2026-04-30 20:15 36.39863 -4.11468 5048 ft 204 kts 311°
2026-04-30 20:15 36.40806 -4.12775 4643 ft 203 kts 311°
2026-04-30 20:15 36.41746 -4.14077 4294 ft 202 kts 311°
2026-04-30 20:16 36.42680 -4.15368 4070 ft 200 kts 311°
2026-04-30 20:16 36.43605 -4.16648 3827 ft 199 kts 311°
2026-04-30 20:16 36.44529 -4.17928 3569 ft 198 kts 311°
2026-04-30 20:16 36.45448 -4.19202 3316 ft 198 kts 312°
2026-04-30 20:17 36.46365 -4.20472 3081 ft 197 kts 311°
2026-04-30 20:17 36.47279 -4.21740 3003 ft 197 kts 311°
2026-04-30 20:17 36.48192 -4.23008 3011 ft 198 kts 311°
2026-04-30 20:17 36.49107 -4.24287 3012 ft 198 kts 311°
2026-04-30 20:18 36.50024 -4.25563 3013 ft 198 kts 311°
2026-04-30 20:18 36.50940 -4.26836 3012 ft 198 kts 311°
2026-04-30 20:18 36.51857 -4.28110 3011 ft 198 kts 311°
2026-04-30 20:18 36.52775 -4.29386 3013 ft 198 kts 311°
2026-04-30 20:19 36.53691 -4.30660 3008 ft 198 kts 311°
2026-04-30 20:19 36.54310 -4.31520 3012 ft 198 kts 311°
2026-04-30 20:19 36.55521 -4.33206 3025 ft 192 kts 311°
2026-04-30 20:19 36.56376 -4.34396 2944 ft 180 kts 311°
2026-04-30 20:20 36.57201 -4.35544 2721 ft 176 kts 311°
2026-04-30 20:20 36.58009 -4.36671 2489 ft 173 kts 311°
2026-04-30 20:20 36.58798 -4.37771 2269 ft 167 kts 311°
2026-04-30 20:20 36.59556 -4.38826 2058 ft 161 kts 311°
2026-04-30 20:21 36.60286 -4.39845 1849 ft 155 kts 310°
2026-04-30 20:21 36.60988 -4.40823 1678 ft 147 kts 310°
2026-04-30 20:21 36.61651 -4.41748 1460 ft 141 kts 310°
2026-04-30 20:21 36.62298 -4.42652 1274 ft 139 kts 310°
2026-04-30 20:22 36.62941 -4.43549 1094 ft 139 kts 310°
2026-04-30 20:22 36.63581 -4.44444 922 ft 138 kts 311°
2026-04-30 20:22 36.64221 -4.45338 749 ft 138 kts 312°
2026-04-30 20:22 36.64856 -4.46225 579 ft 134 kts 313°
2026-04-30 20:23 36.65458 -4.47078 382 ft 135 kts 313°
2026-04-30 20:23 36.66064 -4.47948 263 ft 127 kts 312°
2026-04-30 20:23 36.66633 -4.48755 70 ft 120 kts 314°
2026-04-30 20:23 36.67121 -4.49396 50 ft 79 kts 313°
2026-04-30 20:24 36.67376 -4.49747 49 ft 35 kts 311°
2026-04-30 20:24 36.67520 -4.49941 54 ft 30 kts 314°
2026-04-30 20:24 36.67677 -4.50126 58 ft 31 kts 324°
2026-04-30 20:24 36.67859 -4.50237 57 ft 24 kts
2026-04-30 20:25 36.67876 -4.50010 53 ft 9 kts 135°
2026-04-30 20:25 36.67831 -4.49954 54 ft 11 kts 134°
2026-04-30 20:26 36.67771 -4.49752 51 ft 19 kts 130°
2026-04-30 20:26 36.67761 -4.49618 50 ft 5 kts 40°
2026-04-30 20:26 36.67763 -4.49616 49 ft 0 kts 40°